Weather History for Argentia, NL

Change the Weather History Date:

Tuesday, October 18, 2011

  Actual Average Record
Temperature  
Mean Temperature 50 °F -  
Max Temperature 52 °F - - ()
Min Temperature 48 °F - - ()
Degree Days  
Heating Degree Days 15    
Moisture  
Dew Point 50 °F    
Average Humidity 95    
Maximum Humidity 97    
Minimum Humidity 87    
Precipitation  
Precipitation 0.09 in - - ()
Sea Level Pressure  
Sea Level Pressure 29.84 in    
Wind  
Wind Speed 19 mph ()    
Max Wind Speed 37 mph    
Max Gust Speed 48 mph    
T = Trace of Precipitation, MM = Missing Value Source: Averaged Metar Reports

Daily Weather History Graph

Daily Weather History Graph

Search for Another Location

Airport:

Trip Planner

Search our weather history database for the weather conditions in past years. The results will help you decide how hot, cold, wet, or windy it might be!

Date:

Astronomy

Oct. 18, 2011 Rise Set
Actual Time 7:28 AM NDT 6:13 PM NDT
Civil Twilight 6:57 AM NDT 6:44 PM NDT
Nautical Twilight 6:21 AM NDT 7:19 PM NDT
Astronomical Twilight 5:46 AM NDT 7:55 PM NDT
Moon 10:34 PM NDT (10/18) 1:30 PM NDT (10/18)
Length of Visible Light 11h 47m
Length of Day
10h 45m
Waning Gibbous, 65% of the Moon is Illuminated
Oct 18
Waning Gibbous
Oct 20
Last Quarter
Oct 26
New
Nov 2
First Quarter
Nov 10
Full

Hourly Weather History & Observations

Time (NDT) Temp. Dew Point Humidity Pressure Visibility Wind Dir Wind Speed Gust Speed Precip Events Conditions
12:30 AM 58 °F 57 °F 94% 29.69 in - South 32.2 mph - -  
12:30 AM 58.3 °F 56.7 °F 94% 29.69 in - South 32.2 mph 42.6 mph 0.13 in   Unknown
1:30 AM 59.4 °F 58.1 °F 96% 29.67 in - SSW 36.8 mph 48.3 mph 0.09 in   Unknown
2:30 AM 54.5 °F 53.1 °F 95% 29.70 in - SW 28.8 mph 38.0 mph N/A   Unknown
3:30 AM 53 °F 52 °F 94% 29.71 in - SSW 19.6 mph - -  
3:30 AM 52.7 °F 51.8 °F 97% 29.71 in - SSW 19.6 mph 25.3 mph N/A   Unknown
4:30 AM 51.8 °F 50.9 °F 97% 29.73 in - SSW 15.0 mph - N/A   Unknown
5:30 AM 51.3 °F 50.4 °F 97% 29.74 in - SSW 11.5 mph - N/A   Unknown
6:30 AM 51 °F 50 °F 94% 29.76 in - SSW 15.0 mph - -  
6:30 AM 50.7 °F 49.8 °F 97% 29.76 in - SSW 15.0 mph - N/A   Unknown
7:30 AM 50.2 °F 49.3 °F 97% 29.78 in - SSW 12.7 mph - N/A   Unknown
8:30 AM 48.6 °F 47.8 °F 97% 29.81 in - SSW 12.7 mph - N/A   Unknown
9:30 AM 49 °F 48 °F 97% 29.83 in - SW 12.7 mph - -  
9:30 AM 49.1 °F 48.4 °F 97% 29.83 in - SW 12.7 mph - N/A   Unknown
10:30 AM 48.2 °F 47.5 °F 97% 29.86 in - SSW 16.1 mph - N/A   Unknown
11:30 AM 48.2 °F 47.5 °F 97% 29.86 in - SSW 13.8 mph - N/A   Unknown
12:30 PM 49 °F 48 °F 93% 29.87 in - SW 16.1 mph - -  
12:30 PM 48.6 °F 47.7 °F 97% 29.87 in - SW 16.1 mph - N/A   Unknown
1:30 PM 49.5 °F 48.7 °F 97% 29.87 in - SW 17.3 mph - N/A   Unknown
2:30 PM 49.1 °F 47.8 °F 95% 29.87 in - SSW 16.1 mph - N/A   Unknown
3:30 PM 49 °F 48 °F 94% 29.90 in - SW 18.4 mph - -  
3:30 PM 49.1 °F 47.8 °F 95% 29.90 in - SW 18.4 mph - N/A   Unknown
4:30 PM 50.2 °F 48.6 °F 94% 29.92 in - SSW 15.0 mph - N/A   Unknown
5:30 PM 50.4 °F 48.6 °F 94% 29.93 in - SSW 17.3 mph - N/A   Unknown
6:30 PM 50 °F 49 °F 93% 29.95 in - SSW 15.0 mph - -  
6:30 PM 50.2 °F 48.6 °F 94% 29.95 in - SSW 15.0 mph - N/A   Unknown
7:30 PM 50.2 °F 48.6 °F 94% 29.95 in - SSW 16.1 mph - N/A   Unknown
8:30 PM 50.4 °F 48.6 °F 94% 29.96 in - SSW 19.6 mph - N/A   Unknown
9:30 PM 51 °F 48 °F 87% 29.98 in - SSW 18.4 mph - -  
9:30 PM 50.9 °F 48.2 °F 90% 29.98 in - SSW 18.4 mph - N/A   Unknown
10:30 PM 50.9 °F 48.0 °F 90% 29.99 in - SSW 19.6 mph - N/A   Unknown
11:30 PM 50.7 °F 48.2 °F 91% 30.01 in - SSW 19.6 mph - N/A   Unknown